Home   Weather   Hopedale   Past weeks
Flag for Canada

Past Weather in Hopedale, Newfoundland and Labrador, Canada — Yesterday and Last 2 Weeks

Now
39 °F

Chilly.


Feels Like: N/A
Forecast: 46 / 38 °F
Wind: N/A

Location: Hopedale

Current Time: Oct 17, 2019 at 3:26:38 am

Latest Report: Oct 17, 2019 at 3:00 am


Visibility: N/A

Pressure: 29.81 "Hg

Humidity: 79%

Dew Point: 33 °F

Location of HopedaleLocation

Past Weather in Hopedale — Graph

°F

Hopedale Temperature Yesterday

Maximum temperature yesterday: 45 °F (at 1:00 am)
Minimum temperature yesterday: 36 °F (at 5:00 am)
Average temperature yesterday: 41 °F

High & Low Weather Summary for the Past Weeks

 TemperatureHumidityPressure
High66 °F (Oct 11, 3:00 pm)98% (Oct 10, 4:00 am)30.38 "Hg (Oct 10, 4:00 am)
Low33 °F (Oct 13, 10:00 pm)40% (Oct 12, 5:00 pm)29.51 "Hg (Oct 7, 1:00 pm)
Average44 °F72%29.92 "Hg
* Reported Oct 2 2:00 am — Oct 17 2:00 am, Hopedale. Weather by CustomWeather, © 2019

Note: Actual official high and low records may vary slightly from our data, if they occured in-between our weather recording intervals... More about our weather records

Advertising

Hopedale Weather History for the Previous 24 Hours

Scroll right to see more
 ConditionsComfort  
Time TempWeatherWind HumidityBarometerVisibility
2:00 am
Thu, Oct 17
38 °FChilly.N/A83%29.78 "HgN/A
1:00 am40 °FQuite cool.N/A78%29.76 "HgN/A
12:00 am40 °FQuite cool.N/A79%29.73 "HgN/A
11:00 pm
Wed, Oct 16
40 °FQuite cool.N/A80%29.70 "HgN/A
10:00 pm41 °FQuite cool.N/A78%29.67 "HgN/A
9:00 pm41 °FQuite cool.N/A85%29.65 "HgN/A
8:00 pm42 °FQuite cool.N/A81%29.65 "HgN/A
7:00 pm42 °FQuite cool.N/A82%29.66 "HgN/A
6:00 pm43 °FQuite cool.N/A76%29.66 "HgN/A
5:00 pm44 °FQuite cool.N/A74%29.65 "HgN/A
4:00 pm44 °FQuite cool.N/A73%29.65 "HgN/A
3:00 pm44 °FQuite cool.N/A70%29.65 "HgN/A
2:00 pm44 °FQuite cool.N/A74%29.65 "HgN/A
1:00 pm41 °FQuite cool.N/A78%29.67 "HgN/A
12:00 pm41 °FQuite cool.N/A83%29.67 "HgN/A
11:00 am41 °FQuite cool.N/A85%29.69 "HgN/A
10:00 am40 °FChilly.N/A88%29.70 "HgN/A
9:00 am39 °FChilly.N/A89%29.72 "HgN/A
8:00 am39 °FChilly.N/A89%29.73 "HgN/A
7:00 am38 °FChilly.N/A90%29.73 "HgN/A
6:00 am39 °FChilly.N/A89%29.73 "HgN/A
5:00 am36 °FChilly.N/A97%29.73 "HgN/A
4:00 am38 °FChilly.N/A90%29.74 "HgN/A
3:00 am41 °FQuite cool.N/A86%29.73 "HgN/A
Weather by CustomWeather, © 2019

See weather overview